Voltar ao catálogo

STARLINK-3312

AtivoComunicaçõesVLEO
NORAD 50850·PAYLOAD·🇺🇸 United States

Lançado Jan 6, 2022 de Cape Canaveral Space Force Station

Loading…

Próximas Passagens (próximas 24 horas)

TLE

AtualizadoSource: CelesTrak SupGP

Época: Sep 14, 2026, 21:50 UTC

1 50850C 22001AZ  26257.91020833 -.00023370  00000+0 -91181-3 0  2577
2 50850  53.1537   1.0195 0001401 302.4053 164.5670 15.25403485    10

Acompanhe STARLINK-3312 em tempo real com AllMySat

Download on the App Store